• In Belarus
  • List of Countries
  • For 7 days
  • Water Temperature
  • Satellite Maps
  • Weather Map
  • Weather Widgets
  • user-avatar
    Login

    Hourly Weather Leiria

    Today, 19 August, Sunday

    Time Temperature Precipitation Wind Pressure Humidity
    00:00 +24°C° 0 mm 2 mps 754 mmHg 40%
    01:00 +24°C° 0 mm 2 mps 754 mmHg 38%
    02:00 +24°C° 0 mm 2 mps 754 mmHg 36%
    03:00 +24°C° 0 mm 2 mps 754 mmHg 36%
    04:00 +23°C° 0 mm 2 mps 754 mmHg 36%
    05:00 +24°C° 0 mm 2 mps 754 mmHg 33%
    06:00 +27°C° 0 mm 2 mps 755 mmHg 31%
    07:00 +30°C° 0 mm 2 mps 755 mmHg 29%
    08:00 +34°C° 0 mm 2 mps 755 mmHg 27%
    09:00 +36°C° 0 mm 3 mps 755 mmHg 24%
    10:00 +38°C° 0 mm 3 mps 755 mmHg 21%
    11:00 +40°C° 0 mm 3 mps 755 mmHg 19%
    12:00 +42°C° 0 mm 3 mps 754 mmHg 18%
    13:00 +42°C° 0 mm 4 mps 754 mmHg 18%
    14:00 +42°C° 0 mm 4 mps 754 mmHg 17%
    15:00 +40°C° 0 mm 4 mps 754 mmHg 20%
    16:00 +39°C° 0 mm 5 mps 753 mmHg 22%
    17:00 +36°C° 0 mm 5 mps 753 mmHg 24%
    18:00 +34°C° 0 mm 4 mps 754 mmHg 28%
    19:00 +30°C° 0 mm 4 mps 754 mmHg 33%
    20:00 +27°C° 0 mm 3 mps 754 mmHg 38%
    21:00 +27°C° 0 mm 3 mps 754 mmHg 37%
    22:00 +27°C° 0 mm 3 mps 754 mmHg 37%
    23:00 +26°C° 0 mm 3 mps 754 mmHg 37%

    Tomorrow, 20 August, Monday

    Time Temperature Precipitation Wind Pressure Humidity
    00:00 +26°C° 0 mm 2 mps 754 mmHg 35%
    01:00 +27°C° 0 mm 2 mps 753 mmHg 33%
    02:00 +27°C° 0 mm 2 mps 753 mmHg 32%
    03:00 +27°C° 0 mm 2 mps 753 mmHg 34%
    04:00 +27°C° 0 mm 2 mps 754 mmHg 36%
    05:00 +27°C° 0 mm 2 mps 754 mmHg 38%
    06:00 +29°C° 0 mm 3 mps 754 mmHg 35%
    07:00 +31°C° 0 mm 3 mps 754 mmHg 33%
    08:00 +35°C° 0 mm 3 mps 755 mmHg 30%
    09:00 +36°C° 0 mm 3 mps 755 mmHg 27%
    10:00 +38°C° 0 mm 3 mps 755 mmHg 24%
    11:00 +40°C° 0 mm 3 mps 754 mmHg 22%
    12:00 +40°C° 0 mm 3 mps 754 mmHg 22%
    13:00 +40°C° 0 mm 3 mps 754 mmHg 23%
    14:00 +39°C° 0 mm 3 mps 754 mmHg 23%
    15:00 +37°C° 0 mm 3 mps 753 mmHg 27%
    16:00 +35°C° 0 mm 3 mps 753 mmHg 32%
    17:00 +34°C° 0 mm 3 mps 753 mmHg 36%
    18:00 +31°C° 0 mm 2 mps 753 mmHg 40%
    19:00 +29°C° 0 mm 2 mps 753 mmHg 45%
    20:00 +27°C° 0 mm 2 mps 753 mmHg 50%
    21:00 +27°C° 0 mm 1 mps 753 mmHg 51%
    22:00 +26°C° 0 mm 1 mps 753 mmHg 52%
    23:00 +26°C° 0 mm 1 mps 753 mmHg 53%

    Day after tomorrow, 21 August, Tuesday

    Time Temperature Precipitation Wind Pressure Humidity
    00:00 +25°C° 0 mm 1 mps 753 mmHg 52%
    01:00 +25°C° 0 mm 1 mps 753 mmHg 52%
    02:00 +25°C° 0 mm 1 mps 753 mmHg 51%
    03:00 +25°C° 0.1 mm 1 mps 753 mmHg 50%
    04:00 +25°C° 0.1 mm 1 mps 753 mmHg 49%
    05:00 +25°C° 0.1 mm 1 mps 753 mmHg 48%
    06:00 +27°C° 0 mm 1 mps 753 mmHg 44%
    07:00 +29°C° 0 mm 1 mps 753 mmHg 39%
    08:00 +31°C° 0 mm 1 mps 754 mmHg 35%
    09:00 +33°C° 0 mm 1 mps 754 mmHg 30%
    10:00 +36°C° 0 mm 1 mps 754 mmHg 26%
    11:00 +39°C° 0 mm 1 mps 754 mmHg 21%
    12:00 +39°C° 0 mm 2 mps 753 mmHg 21%
    13:00 +39°C° 0 mm 3 mps 753 mmHg 22%
    14:00 +39°C° 0 mm 3 mps 752 mmHg 22%
    15:00 +37°C° 0 mm 3 mps 752 mmHg 26%
    16:00 +35°C° 0 mm 3 mps 752 mmHg 30%
    17:00 +34°C° 0 mm 3 mps 752 mmHg 34%
    18:00 +30°C° 0 mm 3 mps 752 mmHg 41%
    19:00 +28°C° 0 mm 2 mps 753 mmHg 48%
    20:00 +26°C° 0 mm 2 mps 753 mmHg 55%
    21:00 +25°C° 0 mm 1 mps 753 mmHg 56%
    22:00 +25°C° 0 mm 1 mps 753 mmHg 56%
    23:00 +24°C° 0 mm 1 mps 753 mmHg 57%

    22 August, Wednesday

    Time Temperature Precipitation Wind Pressure Humidity
    00:00 +24°C° 0 mm 1 mps 753 mmHg 57%
    01:00 +24°C° 0 mm 1 mps 753 mmHg 57%
    02:00 +24°C° 0 mm 1 mps 752 mmHg 57%
    03:00 +24°C° 0 mm 1 mps 752 mmHg 55%
    04:00 +24°C° 0 mm 1 mps 753 mmHg 54%
    05:00 +24°C° 0 mm 1 mps 753 mmHg 53%
    06:00 +26°C° 0 mm 1 mps 753 mmHg 46%
    07:00 +29°C° 0 mm 1 mps 753 mmHg 39%
    08:00 +32°C° 0 mm 1 mps 753 mmHg 32%
    09:00 +34°C° 0 mm 1 mps 753 mmHg 29%
    10:00 +37°C° 0 mm 2 mps 754 mmHg 26%
    11:00 +39°C° 0 mm 2 mps 754 mmHg 22%
    12:00 +38°C° 0 mm 3 mps 753 mmHg 23%
    13:00 +38°C° 0 mm 3 mps 753 mmHg 24%
    14:00 +38°C° 0 mm 4 mps 753 mmHg 25%
    15:00 +36°C° 0 mm 4 mps 753 mmHg 29%
    16:00 +35°C° 0 mm 3 mps 753 mmHg 33%
    17:00 +33°C° 0 mm 3 mps 753 mmHg 36%
    18:00 +29°C° 0.1 mm 3 mps 753 mmHg 45%
    19:00 +27°C° 0.1 mm 2 mps 753 mmHg 55%
    20:00 +24°C° 0.1 mm 2 mps 754 mmHg 64%
    21:00 +24°C° 0.1 mm 2 mps 754 mmHg 65%
    22:00 +24°C° 0.1 mm 2 mps 754 mmHg 66%
    23:00 +23°C° 0.1 mm 2 mps 754 mmHg 68%

    23 August, Thursday

    Time Temperature Precipitation Wind Pressure Humidity
    00:00 +23°C° 0 mm 2 mps 753 mmHg 67%
    01:00 +23°C° 0 mm 2 mps 753 mmHg 66%
    02:00 +23°C° 0 mm 2 mps 753 mmHg 66%
    03:00 +23°C° 0.1 mm 2 mps 753 mmHg 66%
    04:00 +23°C° 0.1 mm 2 mps 753 mmHg 65%
    05:00 +23°C° 0.1 mm 2 mps 753 mmHg 65%
    06:00 +26°C° 0.1 mm 2 mps 753 mmHg 57%
    07:00 +29°C° 0.1 mm 2 mps 754 mmHg 48%
    08:00 +32°C° 0.1 mm 2 mps 754 mmHg 39%
    09:00 +35°C° 0 mm 2 mps 754 mmHg 34%
    10:00 +37°C° 0 mm 3 mps 754 mmHg 29%
    11:00 +40°C° 0 mm 3 mps 754 mmHg 23%
    12:00 +40°C° 0 mm 4 mps 754 mmHg 25%
    13:00 +38°C° 0 mm 4 mps 753 mmHg 26%
    14:00 +39°C° 0 mm 5 mps 753 mmHg 27%
    15:00 +36°C° 0 mm 5 mps 753 mmHg 31%
    16:00 +35°C° 0 mm 4 mps 753 mmHg 35%
    17:00 +33°C° 0 mm 4 mps 753 mmHg 39%
    18:00 +30°C° 0 mm 4 mps 754 mmHg 49%
    19:00 +27°C° 0 mm 3 mps 754 mmHg 58%
    20:00 +25°C° 0 mm 3 mps 754 mmHg 68%
    21:00 +24°C° 0 mm 3 mps 754 mmHg 72%
    22:00 +22°C° 0 mm 3 mps 754 mmHg 75%
    23:00 +22°C° 0 mm 3 mps 754 mmHg 79%

    24 August, Friday

    Time Temperature Precipitation Wind Pressure Humidity
    00:00 +21°C° 0 mm 3 mps 754 mmHg 81%
    01:00 +21°C° 0 mm 3 mps 754 mmHg 82%
    02:00 +21°C° 0 mm 3 mps 754 mmHg 84%
    03:00 +20°C° 0 mm 3 mps 754 mmHg 85%
    04:00 +20°C° 0 mm 4 mps 754 mmHg 86%
    05:00 +20°C° 0 mm 4 mps 754 mmHg 87%
    06:00 +22°C° 0 mm 4 mps 754 mmHg 77%
    07:00 +25°C° 0 mm 5 mps 754 mmHg 67%
    08:00 +27°C° 0 mm 5 mps 755 mmHg 57%
    09:00 +29°C° 0 mm 6 mps 754 mmHg 50%
    10:00 +32°C° 0 mm 6 mps 754 mmHg 43%
    11:00 +34°C° 0 mm 7 mps 754 mmHg 36%
    12:00 +34°C° 0 mm 7 mps 754 mmHg 37%
    13:00 +33°C° 0 mm 8 mps 754 mmHg 37%
    14:00 +33°C° 0 mm 8 mps 753 mmHg 38%
    15:00 +31°C° 0 mm 8 mps 753 mmHg 42%
    16:00 +28°C° 0 mm 8 mps 753 mmHg 47%
    17:00 +26°C° 0 mm 8 mps 753 mmHg 51%
    18:00 +24°C° 0 mm 8 mps 753 mmHg 56%
    19:00 +22°C° 0 mm 8 mps 754 mmHg 61%
    20:00 +20°C° 0 mm 7 mps 754 mmHg 66%
    21:00 +20°C° 0 mm 7 mps 754 mmHg 67%
    22:00 +20°C° 0 mm 7 mps 754 mmHg 67%
    23:00 +19°C° 0 mm 6 mps 754 mmHg 68%
    Show more